FW2547 Weather Reports


Display with metric or nautical units.
time (UTC)temp
F
wind
direction
speed
MPH
gust
MPH
rain 1hr
in
rain 24hr
in
rain mn
in
humidity
%
barometer
mb
20211128094504 43 38 0.0 0.0 0.00 0.05 0.00 84 1027.2
20211128091654 45 38 0.0 0.0 0.00 0.05 0.00 84 1026.8
20211128090209 45 38 0.0 0.0 0.00 0.05 0.00 84 1026.6
20211128084637 46 38 0.0 0.0 0.00 0.07 0.00 83 1026.6
20211128083116 46 38 0.0 0.0 0.00 0.07 0.00 83 1026.3
20211128081635 46 38 0.0 0.0 0.00 0.07 0.00 83 1026.1
20211128080126 45 92 0.0 0.0 0.00 0.07 0.00 84 1026.2
20211128074613 46 118 0.0 0.0 0.00 0.14 0.00 82 1026.0
20211128073114 46 118 0.0 0.0 0.00 0.14 0.00 80 1026.1
20211128071633 47 119 0.0 0.0 0.00 0.14 0.00 80 1026.3
20211128070124 47 119 0.0 0.0 0.00 0.14 0.00 80 1026.2
20211128064725 47 119 0.0 0.0 0.00 0.17 0.03 81 1026.0
20211128063123 47 119 0.0 0.0 0.00 0.17 0.03 81 1026.0
20211128061606 47 119 0.0 0.0 0.00 0.17 0.03 80 1025.6
20211128060140 47 119 0.0 0.0 0.00 0.17 0.03 79 1025.3
20211128054638 48 119 0.0 0.0 0.00 0.17 0.03 78 1025.2
20211128053130 48 119 0.0 0.0 0.00 0.17 0.03 78 1025.1
20211128051546 48 119 0.0 0.0 0.00 0.17 0.03 78 1024.9
20211128050048 49 120 0.0 0.0 0.00 0.17 0.03 77 1024.8
20211128044633 50 168 0.0 0.0 0.00 0.17 0.03 74 1024.6
20211128043119 50 284 0.0 0.0 0.00 0.17 0.03 75 1024.3
20211128041548 50 284 0.0 0.0 0.00 0.17 0.03 76 1024.1
20211128040036 50 283 0.0 0.0 0.00 0.17 0.03 77 1023.9
20211128034526 50 283 0.0 0.0 0.00 0.17 0.03 78 1023.9
20211128033045 51 283 0.0 0.0 0.00 0.17 0.03 76 1023.7
20211128031559 51 283 0.0 0.0 0.00 0.17 0.03 75 1023.6
20211128030028 51 283 0.0 0.0 0.00 0.17 0.03 73 1023.4
20211128024547 52 283 0.0 0.0 0.00 0.17 0.03 71 1023.1
20211128023019 53 283 0.0 0.0 0.00 0.17 0.03 68 1022.8
20211128021603 53 283 0.0 0.0 0.00 0.17 0.03 68 1022.8
20211128020042 54 283 0.0 0.0 0.00 0.17 0.03 68 1022.7
20211128014518 54 283 0.0 0.0 0.00 0.17 0.03 68 1022.4
20211128013034 54 283 0.0 0.0 0.00 0.17 0.03 66 1022.1
20211128011522 55 283 0.0 0.0 0.00 0.17 0.03 65 1021.9
20211128010024 56 291 0.0 0.0 0.00 0.17 0.03 61 1021.6
20211128004543 57 291 0.0 0.0 0.00 0.17 0.03 57 1021.4
20211128003016 57 292 0.0 0.0 0.00 0.17 0.03 54 1021.3
20211128001518 58 292 0.0 0.0 0.00 0.17 0.03 52 1020.9
20211128000050 58 292 0.0 0.0 0.00 0.17 0.03 52 1020.8
20211127234518 59 294 0.0 0.0 0.00 0.17 0.03 52 1020.6
20211127233013 59 303 0.0 0.0 0.00 0.17 0.03 50 1020.5
20211127231524 59 320 0.0 0.0 0.01 0.17 0.03 50 1020.5
20211127230010 59 301 0.0 0.0 0.01 0.17 0.03 51 1020.3
20211127224520 59 312 0.0 0.0 0.01 0.17 0.03 52 1020.2
20211127223041 59 307 0.0 0.0 0.01 0.17 0.03 54 1020.0
20211127221512 58 320 0.0 0.0 0.00 0.16 0.02 55 1019.9
20211127220004 58 320 0.0 0.0 0.00 0.16 0.02 62 1019.9
20211127214612 57 5 0.0 0.0 0.00 0.16 0.02 63 1019.7
20211127213130 56 355 0.0 0.0 0.00 0.16 0.02 66 1019.6
20211127211816 55 26 0.0 0.0 0.00 0.16 0.02 67 1019.6
20211127210210 55 329 0.0 0.0 0.00 0.16 0.02 67 1019.5
20211127204648 55 321 0.0 0.0 0.00 0.16 0.02 69 1019.6
20211127203054 54 355 0.0 0.0 0.00 0.16 0.02 71 1020.0
20211127201616 53 348 0.0 0.0 0.00 0.16 0.02 72 1020.0
20211127200109 52 355 0.0 0.0 0.00 0.16 0.02 75 1020.3
20211127194612 51 331 0.0 0.0 0.00 0.16 0.02 76 1020.7
20211127193038 50 351 0.0 0.0 0.00 0.16 0.02 78 1020.8
20211127191534 49 5 0.0 0.0 0.00 0.16 0.02 79 1021.1
20211127190041 49 355 0.0 0.0 0.00 0.16 0.02 79 1021.2
20211127184528 48 311 0.0 0.0 0.00 0.16 0.02 83 1021.2
20211127183043 47 314 0.0 0.0 0.00 0.16 0.02 85 1021.8
20211127181522 47 288 0.0 0.0 0.00 0.16 0.02 85 1022.2
20211127180034 46 323 0.0 0.0 0.00 0.16 0.02 86 1022.4
20211127174539 46 312 0.0 0.0 0.00 0.16 0.02 86 1022.5
20211127173026 46 309 0.0 0.0 0.00 0.16 0.02 87 1022.5
20211127171511 46 300 0.0 0.0 0.00 0.16 0.02 87 1022.6
20211127170012 46 304 0.0 0.0 0.00 0.16 0.02 87 1022.7
20211127164505 45 280 0.0 0.0 0.00 0.16 0.02 87 1022.5
20211127163008 45 306 0.0 0.0 0.00 0.16 0.02 88 1022.5
20211127161711 45 309 0.0 0.0 0.00 0.16 0.02 88 1022.4
20211127160201 45 305 0.0 0.0 0.00 0.16 0.02 89 1022.2
20211127154648 44 326 0.0 0.0 0.00 0.16 0.02 89 1022.2
20211127153121 44 304 0.0 0.0 0.00 0.16 0.02 89 1021.8
20211127151829 44 314 0.0 0.0 0.00 0.16 0.02 89 1021.4
20211127150207 44 294 0.0 0.0 0.00 0.16 0.02 90 1020.9
20211127144630 44 304 0.0 0.0 0.00 0.16 0.02 90 1021.2
20211127143047 44 306 0.0 0.0 0.00 0.16 0.02 89 1021.1
20211127141558 44 309 0.0 0.0 0.00 0.16 0.02 88 1021.4
20211127140156 44 306 0.0 0.0 0.00 0.16 0.02 88 1021.4
20211127134614 44 299 0.0 0.0 0.00 0.16 0.02 89 1021.0
20211127133126 43 301 0.0 0.0 0.00 0.16 0.02 90 1021.0
20211127131547 43 304 0.0 0.0 0.01 0.16 0.02 90 1021.1
20211127130035 43 304 0.0 0.0 0.02 0.16 0.02 90 1020.9
20211127124538 43 314 0.0 0.0 0.02 0.16 0.02 91 1020.7
20211127123036 43 314 0.0 0.0 0.02 0.16 0.02 91 1020.6
20211127121543 43 310 0.0 0.0 0.02 0.15 0.02 91 1020.4
20211127120027 43 304 0.0 0.0 0.01 0.14 0.01 90 1020.2
20211127113112 43 307 0.0 0.0 0.02 0.14 0.12 90 1020.6
20211127111532 43 298 0.0 0.0 0.02 0.14 0.12 90 1020.6
20211127110050 42 304 0.0 0.0 0.01 0.13 0.11 90 1020.8
20211127104552 43 300 0.0 0.0 0.01 0.13 0.11 90 1020.8
20211127103028 42 296 0.0 0.0 0.01 0.13 0.10 89 1020.7
20211127101529 43 311 0.0 0.0 0.01 0.13 0.10 89 1020.7
20211127100048 42 305 0.0 0.0 0.01 0.13 0.10 89 1020.7